Home > Weather > Mattersburg > Past weeks

Flag for Austria Past Weather in Mattersburg, Burgenland, Austria — Yesterday and Last 2 Weeks

Now
85 °F

Warm.


Feels Like: 86 °F
Forecast: 64 / 81 °F
Wind: 3 mph from East

Location: Eisenstadt

Current Time: Jul 23, 2016 at 7:02:10 PM

Latest Report: Jul 23, 2016 at 6:00 PM


Visibility: N/A

Pressure: 29.95 "Hg

Humidity: 51%

Dew Point: 65 °F

Location of MattersburgLocation

Past Weather in Mattersburg — Graph

°F

Mattersburg Temperature Yesterday

Maximum temperature yesterday: 83 °F (at 6:00 PM)
Minimum temperature yesterday: 68 °F (at 4:00 AM)
Average temperature yesterday: 75 °F

High & Low Weather Summary for the Past Weeks

 TemperatureHumidityPressure
High93 °F (Jul 11, 2:00 PM)95% (Jul 23, 2:00 AM)30.19 "Hg (Jul 23, 2:00 AM)
Low56 °F (Jul 14, 7:00 AM)35% (Jul 11, 2:00 PM)29.73 "Hg (Jul 14, 7:00 AM)
Average71 °F67%29.99 "Hg
* Reported Jul 8 5:00 PM — Jul 23 5:00 PM, Mattersburg, Weather by CustomWeather, © 2016

Note: Actual official high and low records may vary slightly from our data, if they occured in-between our weather recording intervals... More about our weather records

Advertising

Mattersburg Weather History for the Previous 24 Hours

Scroll right to see more
 ConditionsComfort  
Time TempWeatherWind HumidityBarometerVisibility
5:00 PM
Sat, Jul 23
85 °FPassing clouds.3 mph49%29.96 "Hg12 mi
4:00 PM83 °FWarm.2 mph49%29.97 "HgN/A
3:00 PM82 °FWarm.2 mph58%29.98 "HgN/A
2:00 PM82 °FScattered clouds.1 mph59%29.99 "Hg12 mi
1:00 PM80 °FWarm.1 mph63%29.99 "HgN/A
12:00 PM80 °FWarm.1 mph62%30.00 "HgN/A
11:00 AM76 °FScattered clouds.5 mph68%30.00 "Hg12 mi
10:00 AM74 °FMild.5 mph75%30.01 "HgN/A
9:00 AM72 °FMild.2 mph83%30.01 "HgN/A
8:00 AM70 °FMild.1 mph88%29.99 "HgN/A
7:00 AM68 °FPartly sunny.1 mph93%29.98 "Hg11 mi
6:00 AM66 °FPartly sunny.2 mph92%29.98 "Hg12 mi
5:00 AM67 °FPassing clouds.1 mph91%29.97 "Hg12 mi
4:00 AM66 °FPassing clouds.3 mph94%29.96 "Hg12 mi
3:00 AM67 °FMild.1 mph93%29.96 "HgN/A
2:00 AM68 °FPassing clouds.1 mph95%29.98 "Hg16 mi
1:00 AM68 °FMild.6 mph93%29.98 "HgN/A
12:00 AM72 °FMild.2 mph81%29.97 "HgN/A
11:00 PM
Fri, Jul 22
70 °FOvercast.5 mph84%29.96 "Hg12 mi
10:00 PM72 °FMild.5 mph81%29.96 "HgN/A
9:00 PM73 °FMild.5 mph78%29.95 "HgN/A
8:00 PM81 °FPassing clouds.1 mph57%29.93 "Hg12 mi
7:00 PM82 °FPassing clouds.5 mph56%29.93 "Hg12 mi
Weather by CustomWeather, © 2016

See weather overviewHow to use our weather pages